Location: Izdebno
(52.6670°N, 16.2170°E)
Time: 13:04:25
(UTC+02:00)

A-11 Canister half - Pass Details

Date: 08 February 2023
Orbit: 1526 x 1682 km, 47.3° (Epoch: 26 March)

Event Time Altitude Azimuth Distance (km) Brightness Sun altitude
Rises 06:07:31 0° 246° (WSW) 4,675 - -12.2°
Exits shadow 06:09:24 - 245° (WSW) 4,070 10.7 -11.9°
Reaches altitude 10° 06:10:36 10° 243° (WSW) 3,691 10.5 -11.7°
Maximum altitude 06:19:38 60° 167° (SSE) 1,724 9.4 -10.4°
Drops below altitude 10° 06:28:49 10° 91° (E) 3,745 12.6 -9.0°
Sets 06:31:57 0° 88° (E) 4,748 13.4 -8.6°
